Regional Weather Roundup
Issued by NWS

Home | Current Version | Previous Version | Text Only | Print | Product List | Glossary Off
Versions: 1 2 3 4 5 6 7 8 9 10 11 12 13 14 15 16 17 18 19 20 21 22 23 24 25 26 27 28 29 30 31 32 33 34 35 36 37 38 39 40 41 42 43 44 45 46 47 48 49 50

000
ASUS43 KOAX 170810
RWRNE

WEATHER ROUNDUP FOR NEBRASKA
NATIONAL WEATHER SERVICE OMAHA NE
200 AM CST SUN DEC 17 2017

NOTES: SATELLITE DATA IS BEING USED TO AUGMENT CLOUD COVER ABOVE
       12000 FEET.
       "FAIR" INDICATES FEW OR NO CLOUDS BELOW 12,000 FEET WITH NO
       SIGNIFICANT WEATHER AND/OR OBSTRUCTIONS TO VISIBILITY.


NEZ001>004-019>022-054>056-170900-
NEBRASKA PANHANDLE

CITY           SKY/WX    TMP DP  RH WIND       PRES   REMARKS
SCOTTSBLUFF    CLOUDY    32  27  81 E8        30.00S WCI  25
ALLIANCE       CLOUDY    30  28  92 NE7       29.98F WCI  23
CHADRON        CLOUDY    29  27  92 CALM      30.03F
GORDON         CLOUDY    32  29  88 N5        30.00F WCI  27
KIMBALL        CLOUDY    29  29  99 NE6       29.95F FOG     WCI  23
SIDNEY         CLOUDY    30  30 100 NE8       29.96S FOG     WCI  22
$$

NEZ057>060-069>072-079>082-170900-
SOUTHWEST NEBRASKA

CITY           SKY/WX    TMP DP  RH WIND       PRES   REMARKS
NORTH PLATTE   CLOUDY    37  33  85 NE9       29.98R WCI  30
IMPERIAL       CLOUDY    35  33  92 NE10      29.97R WCI  27
LEXINGTON      MOCLDY    36  32  87 NE12      29.97R WCI  27
MCCOOK         CLOUDY    37  32  82 NE16      29.95S WCI  28
OGALLALA       CLOUDY    36  32  86 NE10      29.97R WCI  28
$$

NEZ005>010-023>029-035>040-094-170900-
NORTH CENTRAL NEBRASKA

CITY           SKY/WX    TMP DP  RH WIND       PRES   REMARKS
VALENTINE      CLOUDY    36  31  82 N6        30.01F WCI  31
AINSWORTH      CLOUDY    34  33  96 N9        29.99F WCI  27
BROKEN BOW     CLOUDY    37  32  82 NE12      29.98R WCI  29
O`NEILL        CLOUDY    33  33  98 N7        30.00S WCI  27
ORD            CLOUDY    35  31  85 E7        29.99R WCI  29
THEDFORD       CLOUDY    35  32  88 N9        29.97S WCI  28
$$

NEZ041-046>049-061>064-073>077-083>087-170900-
SOUTH CENTRAL NEBRASKA

CITY           SKY/WX    TMP DP  RH WIND       PRES   REMARKS
GRAND ISLAND   CLOUDY    30  29  96 N12       29.96F WCI  20
AURORA         CLOUDY    31  29  92 N13       29.95F WCI  21
HASTINGS       CLOUDY    32  28  85 NE14      29.94F WCI  22
HEBRON         CLOUDY    36  28  73 NE3       29.93S
HOLDREGE       CLOUDY    32  31  96 NE9       29.96R WCI  24
KEARNEY        CLOUDY    30  29  96 N13       29.96F WCI  20
YORK           CLOUDY    32  32 100 NE13      29.94F WCI  22
$$

NEZ011>018-030>034-042>045-170900-
NORTHEAST NEBRASKA

CITY           SKY/WX    TMP DP  RH WIND       PRES   REMARKS
NORFOLK        CLOUDY    31  28  89 NE7       30.01R WCI  24
ALBION         CLOUDY    34  31  87 NE9       30.00R WCI  27
BLAIR          CLOUDY    32  29  86 NE8       29.96S WCI  25
COLUMBUS       CLOUDY    29  26  89 N8        30.00R WCI  21
FREMONT        CLOUDY    32  28  83 N3        29.99S
TEKAMAH        PTCLDY    27  22  81 N10       30.01R WCI  17
WAYNE          CLOUDY    28  27  96 N6        30.01R WCI  21
$$

NEZ050>053-065>068-078-088>093-170900-
SOUTHEAST NEBRASKA

CITY           SKY/WX    TMP DP  RH WIND       PRES   REMARKS
LINCOLN        CLOUDY    33  27  78 N9        29.96F WCI  25
OMAHA EPPLEY   CLOUDY    30  24  78 N7        29.98S WCI  23
BEATRICE       MOCLDY    36  27  71 NE10      29.93S WCI  28
FALLS CITY     CLOUDY    36  26  67 CALM      29.93S
NEBRASKA CITY  CLOUDY    33  26  74 N7        29.94S WCI  27
PLATTSMOUTH    CLOUDY    35  29  79 NE6       29.95S WCI  30
$$

NEZ044-045-051>053-067-170900-
OMAHA AREA

CITY           SKY/WX    TMP DP  RH WIND       PRES   REMARKS
OMAHA EPPLEY   CLOUDY    30  24  78 N7        29.98S WCI  23
BLAIR          CLOUDY    32  29  86 NE8       29.96S WCI  25
FREMONT        CLOUDY    32  28  83 N3        29.99S
MILLARD        CLOUDY    37  30  76 CALM      29.97S
OFFUTT AFB     CLOUDY    34  27  77 NE7       29.96F WCI  27
PLATTSMOUTH    CLOUDY    35  29  79 NE6       29.95S WCI  30
WAHOO          FAIR      31  27  84 N8        29.97F WCI  23
$$




USA.gov is the U.S. government's official web portal to all federal, state and local government web resources and services.